Location: Luxembourg
(49.6117°N, 6.1300°E)
Time: 20:46:45
(UTC+01:00)

ISS - Pass Details

Date: 31 January 2019
Orbit: 403 x 411 km, 51.6° (Epoch: 18 February)

Event Time Altitude Azimuth Distance (km) Brightness Sun altitude
Rises 19:45:28 0° 282° (WNW) 2,337 1.4 -22.2°
Reaches altitude 10° 19:47:34 10° 285° (WNW) 1,477 0.0 -22.5°
Enters shadow 19:49:58 42° 306° (NW) 598 -2.7 -22.9°
